[[{"header":{"parameterUnit":"m.s-1","parameterCategory":1,"la1":30.2991,"la2":30.254,"lo1":-89.0895,"lo2":-89.0444,"dy":0.0017,"dx":0.0017,"nx":28,"ny":28,"refTime":"2024-12-02T09:00:00:Z","depth":0,"parameterNumber":2,"parameterNumberName":"U-component_of_WINDS"},"data":[0,0,0,0,0,0,0,0,0,0,0,0,0,0,0,0,0,0,0,0,0,0,0,0,0,0,0,0,0,0,0,0,0,0,0,0,0,0,0,0,0,0,0,0,0,0,0,0,0,0,0,0,0,0,0,0,0,0,-1.2151,-1.2152,0,-1.2213,-1.2214,-1.2214,-1.2171,-1.2169,-1.2167,-1.2165,-1.2231,-1.2235,-1.2238,0,0,0,0,0,0,0,0,0,0,0,0,0,-1.1996,-1.1999,-1.2151,-1.2152,-1.2152,-1.2213,-1.2214,-1.2215,-1.2171,-1.2169,-1.2167,-1.2164,-1.223,-1.2234,-1.2239,0,0,0,0,0,0,0,0,0,0,0,0,0,-1.2061,-1.2,-1.2151,-1.2138,-1.2137,-1.2213,-1.2214,-1.2215,-1.2172,-1.2169,-1.2166,-1.2163,-1.2229,-1.2234,-1.2239,-1.2331,0,0,-1.2256,-1.2258,0,0,0,0,0,0,0,0,-1.2058,-1.2067,-1.2139,-1.2139,-1.2139,-1.2181,-1.2183,-1.2254,-1.2173,-1.2159,-1.2165,-1.2162,-1.2217,-1.2223,-1.2242,-1.2334,-1.2337,-1.2256,-1.2259,-1.2262,-1.2263,0,0,0,0,0,0,0,-1.2053,-1.2064,-1.2175,-1.214,-1.214,-1.213,-1.2136,-1.2197,-1.2204,-1.216,-1.2157,-1.2165,-1.2216,-1.2236,-1.2243,-1.2338,-1.2256,-1.2261,-1.2264,-1.2266,-1.2509,-1.2512,0,0,0,0,0,0,-1.2049,-1.2061,-1.2174,-1.2177,-1.209,-1.2135,-1.2142,-1.2171,-1.2203,-1.2205,-1.2167,-1.2162,-1.2229,-1.2237,-1.2245,-1.2355,-1.2262,-1.2267,-1.227,-1.2506,-1.251,-1.2513,0,0,0,0,0,0,-1.2046,-1.206,-1.2171,-1.2118,-1.2131,-1.2141,-1.2174,-1.2173,-1.2193,-1.2208,-1.221,-1.2186,-1.2227,-1.2237,-1.231,-1.2357,-1.2269,-1.2274,-1.2502,-1.2507,-1.2512,-1.2577,0,0,0,0,0,0,-1.2042,-1.2059,-1.2094,-1.2119,-1.2134,-1.2235,-1.2176,-1.2177,-1.2202,-1.2197,-1.2227,-1.2229,-1.2225,-1.2302,-1.2315,-1.2363,-1.2278,-1.2498,-1.2504,-1.251,-1.257,-1.2583,-1.2594,0,0,0,0,0,-1.2037,-1.211,-1.2096,-1.211,-1.2178,-1.2238,-1.2247,-1.224,-1.2206,-1.2242,-1.2251,-1.2228,-1.2349,-1.231,-1.2324,-1.2374,-1.2495,-1.2503,-1.251,-1.2565,-1.2581,-1.2594,0,0,0,0,0,0,-1.2092,-1.2113,-1.2098,-1.2182,-1.2208,-1.223,-1.2275,-1.2257,-1.2294,-1.2288,-1.2278,-1.2286,-1.2362,-1.2375,-1.2331,-1.2465,-1.2417,-1.2427,-1.2454,-1.2469,-1.248,-1.2477,-1.2283,0,0,0,0,0,-1.2113,-1.2159,-1.2176,-1.2248,-1.2262,-1.2266,-1.2292,-1.2285,-1.2312,-1.2323,-1.2338,-1.2366,-1.241,-1.244,-1.2481,-1.2571,-1.2577,-1.2612,-1.2624,-1.2634,-1.2644,-1.2692,-1.2708,-1.2537,-1.2537,-1.2537,0,0,-1.2159,-1.2177,-1.2207,-1.226,-1.2279,-1.2328,-1.2276,-1.233,-1.2366,-1.2331,-1.2401,-1.2413,-1.2443,-1.2525,-1.2561,-1.2538,-1.2692,-1.2643,-1.265,-1.2655,-1.2701,-1.2718,-1.2732,-1.2542,-1.2541,-1.2541,0,0,-1.2268,-1.2285,-1.2348,-1.2368,-1.2397,-1.2399,-1.2414,-1.2439,-1.2445,-1.2514,-1.249,-1.2532,-1.2609,-1.2631,-1.2653,-1.2768,-1.2748,-1.2782,-1.2844,-1.2892,-1.2906,-1.2917,-1.296,-1.2975,-1.2791,-1.2791,-1.2791,0,-1.2322,-1.2393,-1.2382,-1.2438,-1.2462,-1.2431,-1.2495,-1.2515,-1.2557,-1.2575,-1.2548,-1.2642,-1.2661,-1.2747,-1.2775,-1.2793,-1.2811,-1.278,-1.2904,-1.2916,-1.2927,-1.2967,-1.2983,-1.2795,-1.2795,-1.2794,-1.2794,0,-1.2458,-1.2508,-1.2555,-1.2595,-1.2625,-1.2684,-1.2682,-1.2713,-1.2703,-1.2707,-1.2778,-1.2799,-1.2844,-1.2863,-1.2854,-1.2949,-1.2933,-1.2905,-1.2857,-1.2948,-1.2985,-1.3001,-1.2801,-1.2799,-1.2798,-1.2797,0,0,-1.2606,-1.2638,-1.2656,-1.2674,-1.2704,-1.2742,-1.2799,-1.2842,-1.287,-1.2899,-1.2948,-1.3012,-1.2986,-1.301,-1.3003,-1.3044,-1.3135,-1.3011,-1.3011,-1.3035,-1.3242,-1.3265,-1.3283,-1.3121,-1.3124,-1.3126,-1.324,0,-1.2718,-1.2818,-1.2809,-1.2904,-1.295,-1.292,-1.297,-1.2994,-1.2999,-1.304,-1.3045,-1.3092,-1.3053,-1.3068,-1.3107,-1.3116,-1.3177,-1.3107,-1.3168,-1.317,-1.3163,-1.3302,-1.3327,-1.3434,-1.3255,-1.3257,-1.3259,0,-1.2862,-1.2896,-1.2995,-1.3017,-1.3036,-1.3081,-1.312,-1.3158,-1.3184,-1.3185,-1.3211,-1.3196,-1.3254,-1.3203,-1.3283,-1.3236,-1.3259,-1.3267,-1.3271,-1.3279,-1.3222,-1.3316,-1.3467,-1.3484,-1.3282,-1.328,-1.3278,0,-1.2962,-1.3032,-1.3101,-1.3116,-1.3143,-1.3176,-1.3189,-1.3211,-1.3238,-1.3271,-1.3288,-1.3328,-1.3351,-1.3382,-1.3378,-1.3341,-1.346,-1.3408,-1.3464,-1.3464,-1.3493,-1.3491,-1.3653,-1.3504,-1.3504,-1.3503,-1.3503,0,-1.309,-1.3152,-1.3146,-1.3189,-1.3257,-1.3246,-1.3314,-1.3323,-1.3343,-1.3387,-1.3363,-1.3405,-1.3396,-1.3438,-1.3435,-1.3502,-1.3512,-1.3515,-1.3514,-1.3519,-1.3519,-1.3537,-1.353,-1.3508,-1.3507,-1.3506,-1.3505,0,-1.3215,-1.3213,-1.3286,-1.3304,-1.331,-1.336,-1.3377,-1.3417,-1.3419,-1.3475,-1.3487,-1.3491,-1.3539,-1.3537,-1.3591,-1.3589,-1.3673,-1.3662,-1.3664,-1.3663,-1.3719,-1.3715,-1.3899,-1.3923,-1.3757,-1.3759,-1.376,0,-1.3297,-1.3344,-1.3367,-1.3395,-1.3409,-1.3453,-1.348,-1.3469,-1.3498,-1.353,-1.3567,-1.3611,-1.3647,-1.3725,-1.3733,-1.3774,-1.3766,-1.3827,-1.3772,-1.3775,-1.3769,-1.3767,-1.3772,-1.3839,-1.3841,-1.3843,-1.3844,0,-1.3445,-1.3441,-1.3479,-1.3517,-1.3549,-1.3579,-1.3606,-1.363,-1.3622,-1.3655,-1.3703,-1.3731,-1.3785,-1.3831,-1.387,-1.3883,-1.3863,-1.386,-1.3876,-1.3883,-1.3883,-1.3885,-1.3696,-1.3857,-1.3856,-1.3855,-1.3854,-1.3854,-1.3552,-1.3593,-1.3615,-1.3659,-1.3677,-1.3703,-1.3742,-1.3748,-1.3787,-1.3831,-1.3822,-1.3876,-1.3899,-1.395,-1.3966,-1.4009,-1.3987,-1.4009,-1.4015,-1.4021,-1.4028,-1.3874,-1.4015,-1.4015,-1.4015,-1.4014,-1.4014,0,-1.37,-1.3712,-1.3752,-1.379,-1.3825,-1.38,-1.3828,-1.3859,-1.3907,-1.393,-1.3965,-1.402,-1.4063,-1.4074,-1.4115,-1.4147,-1.4139,-1.4159,-1.4158,-1.4161,-1.4044,-1.4028,-1.4165,-1.4165,-1.4165,-1.4165,-1.4165,-1.4165,-1.3781,-1.3849,-1.3847,-1.3924,-1.3935,-1.3988,-1.4006,-1.403,-1.4048,-1.411,-1.4146,-1.4152,-1.417,-1.4212,-1.4251,-1.4253,-1.4271,-1.4295,-1.4293,-1.4185,-1.417,-1.4155,-1.414,-1.4298,-1.4298,-1.4407,-1.4408,-1.4409]},{"header":{"parameterUnit":"m.s-1","parameterCategory":1,"la1":30.2991,"la2":30.254,"lo1":-89.0895,"lo2":-89.0444,"dy":0.0017,"dx":0.0017,"nx":28,"ny":28,"refTime":"2024-12-02T09:00:00:Z","depth":0,"parameterNumber":3,"parameterNumberName":"V-component_of_WINDS"},"data":[0,0,0,0,0,0,0,0,0,0,0,0,0,0,0,0,0,0,0,0,0,0,0,0,0,0,0,0,0,0,0,0,0,0,0,0,0,0,0,0,0,0,0,0,0,0,0,0,0,0,0,0,0,0,0,0,0,0,-3.901,-3.9011,0,-3.9063,-3.9063,-3.9064,-3.899,-3.8987,-3.8985,-3.8982,-3.9031,-3.9035,-3.9039,0,0,0,0,0,0,0,0,0,0,0,0,0,-3.8842,-3.8845,-3.901,-3.9011,-3.9012,-3.9063,-3.9063,-3.9064,-3.899,-3.8987,-3.8984,-3.8981,-3.903,-3.9035,-3.9039,0,0,0,0,0,0,0,0,0,0,0,0,0,-3.8907,-3.8847,-3.901,-3.8981,-3.8979,-3.9062,-3.9063,-3.9064,-3.8991,-3.8987,-3.8983,-3.898,-3.9029,-3.9034,-3.904,-3.9152,0,0,-3.9057,-3.9059,0,0,0,0,0,0,0,0,-3.8903,-3.8913,-3.8985,-3.8983,-3.8981,-3.9016,-3.9022,-3.9094,-3.8992,-3.8987,-3.8982,-3.8978,-3.9029,-3.9034,-3.9053,-3.9155,-3.9157,-3.9057,-3.9061,-3.9063,-3.9065,0,0,0,0,0,0,0,-3.8899,-3.891,-3.9031,-3.8986,-3.8984,-3.8964,-3.8969,-3.9035,-3.9029,-3.8987,-3.8981,-3.8989,-3.9027,-3.9048,-3.9053,-3.9158,-3.9057,-3.9062,-3.9066,-3.9068,-3.9353,-3.9357,0,0,0,0,0,0,-3.8898,-3.8907,-3.9029,-3.9032,-3.8932,-3.897,-3.8976,-3.9009,-3.9028,-3.9027,-3.8992,-3.8985,-3.904,-3.9047,-3.9055,-3.9187,-3.9063,-3.9068,-3.9072,-3.9349,-3.9354,-3.9359,0,0,0,0,0,0,-3.8895,-3.891,-3.9027,-3.8968,-3.8982,-3.8977,-3.9015,-3.9012,-3.9032,-3.9032,-3.903,-3.9014,-3.9037,-3.9047,-3.9129,-3.9188,-3.9071,-3.9076,-3.9344,-3.9351,-3.9357,-3.9454,0,0,0,0,0,0,-3.8891,-3.8909,-3.8953,-3.897,-3.8985,-3.9102,-3.9019,-3.9016,-3.9042,-3.9034,-3.9052,-3.9052,-3.9035,-3.9121,-3.9134,-3.9193,-3.908,-3.9339,-3.9347,-3.9355,-3.9445,-3.9463,-3.9478,0,0,0,0,0,-3.8885,-3.8978,-3.8956,-3.8971,-3.9041,-3.9106,-3.9114,-3.9094,-3.9047,-3.9091,-3.9091,-3.9051,-3.918,-3.913,-3.9144,-3.9206,-3.9335,-3.9345,-3.9354,-3.9438,-3.9459,-3.9477,0,0,0,0,0,0,-3.8966,-3.8979,-3.8955,-3.9057,-3.9081,-3.9093,-3.9147,-3.9117,-3.9154,-3.9144,-3.9116,-3.9121,-3.9209,-3.9215,-3.916,-3.9316,-3.9249,-3.9262,-3.9308,-3.9328,-3.9344,-3.934,-3.9085,0,0,0,0,0,-3.8997,-3.905,-3.9058,-3.9147,-3.916,-3.9152,-3.9179,-3.9162,-3.9185,-3.9194,-3.92,-3.9223,-3.9268,-3.9299,-3.934,-3.9446,-3.9448,-3.9496,-3.9512,-3.9525,-3.9536,-3.9591,-3.9612,-3.939,-3.939,-3.939,0,0,-3.9059,-3.9073,-3.9108,-3.9163,-3.918,-3.9234,-3.9161,-3.9222,-3.9261,-3.9203,-3.9281,-3.9286,-3.931,-3.9404,-3.9445,-3.9412,-3.9598,-3.9537,-3.9548,-3.9552,-3.9603,-3.9624,-3.9643,-3.9397,-3.9395,-3.9394,0,0,-3.92,-3.9216,-3.9292,-3.931,-3.9337,-3.9331,-3.9349,-3.9366,-3.9368,-3.9446,-3.9403,-3.9449,-3.9528,-3.9546,-3.9565,-3.9713,-3.9678,-3.9728,-3.9812,-3.9866,-3.9883,-3.9899,-3.9951,-3.997,-3.9739,-3.9739,-3.9739,0,-3.9273,-3.9355,-3.9334,-3.9398,-3.9423,-3.9375,-3.945,-3.9468,-3.9506,-3.9524,-3.9486,-3.9584,-3.9596,-3.9694,-3.973,-3.9748,-3.9766,-3.9725,-3.9883,-3.9898,-3.9912,-3.9961,-3.9981,-3.9745,-3.9744,-3.9744,-3.9743,0,-3.9444,-3.9501,-3.9559,-3.9599,-3.963,-3.9699,-3.9687,-3.9721,-3.9701,-3.9698,-3.9777,-3.9791,-3.9834,-3.9856,-3.9836,-3.995,-3.9928,-3.9888,-3.982,-3.9939,-3.9985,-4.0004,-3.9753,-3.9751,-3.975,-3.9748,0,0,-3.9637,-3.9665,-3.9686,-3.9703,-3.9729,-3.9772,-3.9838,-3.9882,-3.9912,-3.994,-3.9993,-4.0061,-4.0024,-4.0046,-4.0028,-4.0076,-4.0191,-4.0028,-4.0029,-4.0057,-4.0316,-4.0346,-4.0368,-4.0168,-4.0171,-4.0174,-4.0314,0,-3.9778,-3.9894,-3.9877,-3.9988,-4.004,-3.9995,-4.0052,-4.0074,-4.0073,-4.0116,-4.0114,-4.0162,-4.0109,-4.0122,-4.0168,-4.0167,-4.0242,-4.0157,-4.0216,-4.0218,-4.0211,-4.0392,-4.0424,-4.0556,-4.0331,-4.0334,-4.0337,0,-3.9957,-3.9993,-4.0111,-4.0128,-4.0149,-4.0201,-4.0239,-4.0281,-4.0304,-4.0299,-4.0325,-4.0298,-4.0362,-4.0295,-4.0382,-4.0325,-4.0348,-4.0351,-4.0356,-4.036,-4.0284,-4.04,-4.0597,-4.0617,-4.0365,-4.0362,-4.036,0,-4.0085,-4.0163,-4.0243,-4.0259,-4.0282,-4.0319,-4.033,-4.0349,-4.0376,-4.0409,-4.0426,-4.0466,-4.0487,-4.0518,-4.0501,-4.0454,-4.0592,-4.0523,-4.0589,-4.059,-4.0619,-4.0618,-4.0822,-4.0636,-4.0636,-4.0635,-4.0635,0,-4.0243,-4.0317,-4.0301,-4.0351,-4.0431,-4.0409,-4.0489,-4.0494,-4.0511,-4.0559,-4.0522,-4.0567,-4.0543,-4.0587,-4.0574,-4.0648,-4.0658,-4.0656,-4.0651,-4.0659,-4.0659,-4.0673,-4.0663,-4.064,-4.0639,-4.0638,-4.0637,0,-4.04,-4.0393,-4.0477,-4.0492,-4.0497,-4.0556,-4.0567,-4.0612,-4.0609,-4.067,-4.0683,-4.0677,-4.0726,-4.0714,-4.0767,-4.0758,-4.0851,-4.0836,-4.0844,-4.084,-4.0907,-4.09,-4.1126,-4.1154,-4.0951,-4.0953,-4.0955,0,-4.0501,-4.0557,-4.0578,-4.0608,-4.0622,-4.0671,-4.0699,-4.068,-4.071,-4.074,-4.0781,-4.0827,-4.0863,-4.0943,-4.0943,-4.0983,-4.0967,-4.1044,-4.0973,-4.0979,-4.0967,-4.0964,-4.0969,-4.1058,-4.106,-4.1062,-4.1063,0,-4.0681,-4.0675,-4.0717,-4.0759,-4.0794,-4.0825,-4.0852,-4.0879,-4.0861,-4.0897,-4.0948,-4.0976,-4.103,-4.1076,-4.1113,-4.1121,-4.109,-4.1086,-4.1103,-4.1111,-4.1113,-4.1112,-4.0882,-4.1081,-4.1079,-4.1078,-4.1077,-4.1076,-4.0812,-4.0859,-4.0882,-4.093,-4.0949,-4.0976,-4.1019,-4.1021,-4.1064,-4.1108,-4.1093,-4.1151,-4.117,-4.1217,-4.123,-4.1274,-4.1245,-4.127,-4.1276,-4.1283,-4.1291,-4.1107,-4.1281,-4.128,-4.128,-4.1279,-4.1279,0,-4.0989,-4.1001,-4.1046,-4.1087,-4.1125,-4.1093,-4.1121,-4.1155,-4.1206,-4.1228,-4.1265,-4.1322,-4.1366,-4.137,-4.1411,-4.1445,-4.1431,-4.1456,-4.1453,-4.1456,-4.1315,-4.1295,-4.1467,-4.1467,-4.1467,-4.1467,-4.1467,-4.1467,-4.1086,-4.1164,-4.116,-4.1246,-4.1257,-4.1315,-4.1334,-4.1357,-4.1375,-4.1441,-4.1479,-4.1481,-4.1495,-4.1537,-4.1575,-4.1575,-4.1591,-4.1622,-4.1616,-4.1484,-4.1466,-4.1448,-4.1429,-4.1626,-4.1626,-4.1753,-4.1754,-4.1755]}]]